TimeEDT,TemperatureF,Dew PointF,Humidity,Sea Level PressureIn,VisibilityMPH,Wind Direction,Wind SpeedMPH,Gust SpeedMPH,PrecipitationIn,Events,Conditions,WindDirDegrees,DateUTC
12:53 AM,70.0,60.1,71,30.21,10.0,East,5.8,-,N/A,,Clear,100,2013-05-27 04:53:00
1:53 AM,70.0,61.0,73,30.20,10.0,East,4.6,-,N/A,,Clear,90,2013-05-27 05:53:00
2:53 AM,70.0,61.0,73,30.20,10.0,East,4.6,-,N/A,,Clear,90,2013-05-27 06:53:00
3:53 AM,69.1,62.1,78,30.18,10.0,East,3.5,-,N/A,,Clear,80,2013-05-27 07:53:00
4:53 AM,66.0,62.1,87,30.17,10.0,Calm,Calm,-,N/A,,Clear,0,2013-05-27 08:53:00
5:53 AM,66.0,61.0,84,30.18,10.0,NE,3.5,-,N/A,,Clear,40,2013-05-27 09:53:00
6:53 AM,64.9,61.0,87,30.19,10.0,NE,5.8,-,N/A,,Clear,50,2013-05-27 10:53:00
7:53 AM,72.0,64.9,78,30.20,10.0,ENE,4.6,-,N/A,,Clear,70,2013-05-27 11:53:00
8:53 AM,77.0,62.1,60,30.20,10.0,ESE,8.1,-,N/A,,Clear,110,2013-05-27 12:53:00
9:53 AM,78.1,61.0,56,30.21,10.0,ESE,10.4,-,N/A,,Clear,110,2013-05-27 13:53:00
10:53 AM,80.1,61.0,52,30.21,10.0,East,5.8,-,N/A,,Partly Cloudy,100,2013-05-27 14:53:00
11:53 AM,82.0,60.1,47,30.21,10.0,ESE,6.9,-,N/A,,Clear,110,2013-05-27 15:53:00
12:53 PM,84.9,59.0,41,30.20,10.0,ESE,8.1,-,N/A,,Clear,110,2013-05-27 16:53:00
1:53 PM,87.1,57.0,36,30.19,10.0,ENE,9.2,-,N/A,,Clear,70,2013-05-27 17:53:00
2:53 PM,87.1,57.9,37,30.17,10.0,ESE,11.5,-,N/A,,Clear,120,2013-05-27 18:53:00
3:53 PM,88.0,57.0,35,30.15,10.0,ESE,10.4,-,N/A,,Clear,110,2013-05-27 19:53:00
4:53 PM,87.1,55.9,35,30.14,10.0,East,13.8,-,N/A,,Clear,90,2013-05-27 20:53:00
5:53 PM,86.0,55.9,36,30.13,10.0,ESE,9.2,-,N/A,,Clear,110,2013-05-27 21:53:00
6:53 PM,82.9,57.0,41,30.12,10.0,East,13.8,18.4,N/A,,Clear,90,2013-05-27 22:53:00
7:53 PM,79.0,59.0,50,30.13,10.0,East,12.7,19.6,N/A,,Clear,100,2013-05-27 23:53:00
8:53 PM,77.0,61.0,58,30.14,10.0,East,11.5,20.7,N/A,,Clear,90,2013-05-28 00:53:00
9:53 PM,75.0,61.0,62,30.17,10.0,East,10.4,-,N/A,,Clear,100,2013-05-28 01:53:00
10:53 PM,73.9,62.1,66,30.18,10.0,East,6.9,-,N/A,,Clear,90,2013-05-28 02:53:00
11:53 PM,73.0,63.0,71,30.18,10.0,ENE,6.9,-,N/A,,Clear,70,2013-05-28 03:53:00